"Period start","avg(HW err(1)/warn(2) (#))","avg(Visibility (m))","avg(Weather code (#))","avg(Precip intensity (mm/h))","min(HW err(1)/warn(2) (#))","max(HW err(1)/warn(2) (#))","std(HW err(1)/warn(2) (#))","med(HW err(1)/warn(2) (#))","min(Visibility (m))","max(Visibility (m))","std(Visibility (m))","med(Visibility (m))","min(Weather code (#))","max(Weather code (#))","std(Weather code (#))","med(Weather code (#))","min(Precip intensity (mm/h))","max(Precip intensity (mm/h))","std(Precip intensity (mm/h))","med(Precip intensity (mm/h))"
2016-05-30 00:00:00,0,39715,0,0.00,0,0,0,0,25760,50000,6568,41210,0,0,0,0,0.00,0.00,0.00,0.00
2016-05-30 00:10:00,0,43147,0,0.00,0,0,0,0,32580,49125,4831,43981,0,0,0,0,0.00,0.00,0.00,0.00
2016-05-30 00:20:00,0,43348,0,0.00,0,0,0,0,37532,50000,4643,42346,0,0,0,0,0.00,0.00,0.00,0.00
2016-05-30 00:30:00,0,41590,0,0.00,0,0,0,0,29178,49488,7184,44302,0,0,0,0,0.00,0.00,0.00,0.00
2016-05-30 00:40:00,0,35297,0,0.00,0,0,0,0,24778,39731,4203,36416,0,0,0,0,0.00,0.00,0.00,0.00
2016-05-30 00:50:00,0,42076,0,0.00,0,0,0,0,33060,48119,5149,39927,0,0,0,0,0.00,0.00,0.00,0.00
2016-05-30 01:00:00,0,38123,0,0.00,0,0,0,0,23085,50000,8088,36738,0,0,0,0,0.00,0.00,0.00,0.00
2016-05-30 01:10:00,0,46766,0,0.00,0,0,0,0,34425,50000,4834,49090,0,0,0,0,0.00,0.00,0.00,0.00
2016-05-30 01:20:00,0,44674,0,0.00,0,0,0,0,36086,50000,4631,44893,0,0,0,0,0.00,0.00,0.00,0.00
2016-05-30 01:30:00,0,48005,0,0.00,0,0,0,0,43629,50000,2235,48367,0,0,0,0,0.00,0.00,0.00,0.00
2016-05-30 01:40:00,0,50000,0,0.00,0,0,0,0,50000,50000,0,50000,0,0,0,0,0.00,0.00,0.00,0.00
2016-05-30 01:50:00,0,39420,0,0.00,0,0,0,0,19227,50000,10749,42881,0,0,0,0,0.00,0.00,0.00,0.00
2016-05-30 02:00:00,0,42967,0,0.00,0,0,0,0,32950,50000,6555,45792,0,0,0,0,0.00,0.00,0.00,0.00
2016-05-30 02:10:00,0,46138,0,0.00,0,0,0,0,36845,50000,4105,46718,0,0,0,0,0.00,0.00,0.00,0.00
2016-05-30 02:20:00,0,47554,0,0.00,0,0,0,0,38432,50000,3671,49486,0,0,0,0,0.00,0.00,0.00,0.00
2016-05-30 02:30:00,0,42555,0,0.00,0,0,0,0,32071,50000,5207,44158,0,0,0,0,0.00,0.00,0.00,0.00
2016-05-30 02:40:00,0,47143,0,0.00,0,0,0,0,39779,50000,3703,49870,0,0,0,0,0.00,0.00,0.00,0.00
2016-05-30 02:50:00,0,40310,0,0.00,0,0,0,0,21159,50000,9255,43565,0,0,0,0,0.00,0.00,0.00,0.00
2016-05-30 03:00:00,0,47782,0,0.00,0,0,0,0,36466,50000,4562,50000,0,0,0,0,0.00,0.00,0.00,0.00
2016-05-30 03:10:00,0,48350,0,0.00,0,0,0,0,41025,50000,2948,50000,0,0,0,0,0.00,0.00,0.00,0.00
2016-05-30 03:20:00,0,49149,0,0.00,0,0,0,0,43223,50000,2042,50000,0,0,0,0,0.00,0.00,0.00,0.00
2016-05-30 03:30:00,0,45881,0,0.00,0,0,0,0,37943,50000,4141,46478,0,0,0,0,0.00,0.00,0.00,0.00
2016-05-30 03:40:00,0,49712,0,0.00,0,0,0,0,48376,50000,533,50000,0,0,0,0,0.00,0.00,0.00,0.00
2016-05-30 03:50:00,0,49121,0,0.00,0,0,0,0,45370,50000,1679,50000,0,0,0,0,0.00,0.00,0.00,0.00
2016-05-30 04:00:00,0,41012,0,0.00,0,0,0,0,32060,47976,5072,41935,0,0,0,0,0.00,0.00,0.00,0.00
2016-05-30 04:10:00,0,44827,0,0.00,0,0,0,0,39444,50000,3580,44246,0,0,0,0,0.00,0.00,0.00,0.00
2016-05-30 04:20:00,0,45690,0,0.00,0,0,0,0,40448,50000,3302,46105,0,0,0,0,0.00,0.00,0.00,0.00
2016-05-30 04:30:00,0,47140,0,0.00,0,0,0,0,40579,50000,3629,49474,0,0,0,0,0.00,0.00,0.00,0.00
2016-05-30 04:40:00,0,47196,0,0.00,0,0,0,0,43753,50000,2736,48118,0,0,0,0,0.00,0.00,0.00,0.00
2016-05-30 04:50:00,0,39255,18,0.04,0,0,0,0,23224,50000,9221,42790,0,61,28,0,0.00,0.40,0.12,0.00
2016-05-30 05:00:00,0,38565,22,0.24,0,0,0,0,21432,50000,9606,40582,0,61,28,0,0.00,0.85,0.31,0.00
2016-05-30 05:10:00,0,27002,54,0.87,0,0,0,0,20435,36501,5321,25906,51,61,5,51,0.40,1.45,0.39,0.97
2016-05-30 05:20:00,0,34759,26,0.14,0,0,0,0,21998,50000,9784,31616,0,51,26,26,0.00,1.00,0.30,0.00
2016-05-30 05:30:00,0,49127,0,0.00,0,0,0,0,42073,50000,2363,50000,0,0,0,0,0.00,0.00,0.00,0.00
2016-05-30 05:40:00,0,46060,0,0.00,0,0,0,0,39489,50000,4139,47430,0,0,0,0,0.00,0.00,0.00,0.00
2016-05-30 05:50:00,0,43349,0,0.00,0,0,0,0,29793,50000,6036,44086,0,0,0,0,0.00,0.00,0.00,0.00
2016-05-30 06:00:00,0,41014,43,0.28,0,0,0,0,31305,49253,5532,42052,0,61,22,51,0.00,1.00,0.31,0.12
2016-05-30 06:10:00,0,29325,57,1.10,0,0,0,0,17016,49453,9204,28752,51,61,5,61,0.30,3.10,0.92,0.62
2016-05-30 06:20:00,0,45705,31,0.04,0,0,0,0,34821,50000,4508,46690,0,51,25,51,0.00,0.20,0.07,0.00
2016-05-30 06:30:00,0,45199,0,0.00,0,0,0,0,35811,50000,5131,47442,0,0,0,0,0.00,0.00,0.00,0.00
2016-05-30 06:40:00,0,49552,0,0.00,0,0,0,0,47505,50000,903,50000,0,0,0,0,0.00,0.00,0.00,0.00
2016-05-30 06:50:00,0,48500,0,0.00,0,0,0,0,42697,50000,2260,49720,0,0,0,0,0.00,0.00,0.00,0.00
2016-05-30 07:00:00,0,32330,43,1.24,0,0,0,0,19360,50000,10850,27310,0,61,28,61,0.00,2.80,1.05,1.27
2016-05-30 07:10:00,0,19409,61,2.54,0,0,0,0,15413,23966,2886,19042,61,61,0,61,1.60,4.55,0.76,2.42
2016-05-30 07:20:00,0,23122,61,2.96,0,0,0,0,12744,31348,5425,23907,61,61,0,61,0.80,7.15,1.62,2.70
2016-05-30 07:30:00,0,17100,61,2.46,0,0,0,0,13041,23132,2901,16751,61,61,0,61,1.35,4.30,0.86,2.58
2016-05-30 07:40:00,0,24624,61,4.09,0,0,0,0,16390,37012,7136,21722,61,61,0,61,1.10,8.25,2.08,3.70
2016-05-30 07:50:00,0,31032,61,1.40,0,0,0,0,18535,50000,9010,29834,61,61,0,61,0.05,2.85,1.10,1.30
2016-05-30 08:00:00,0,46014,54,0.78,0,0,0,0,35716,50000,4683,47286,51,61,5,51,0.00,1.95,0.57,0.57
2016-05-30 08:10:00,0,35094,61,2.84,0,0,0,0,26646,49463,7562,33576,61,61,0,61,1.10,6.30,1.77,2.25
2016-05-30 08:20:00,0,40884,61,2.69,0,0,0,0,24397,50000,8702,44626,61,61,0,61,0.25,9.15,2.54,1.98
2016-05-30 08:30:00,0,49877,52,0.15,0,0,0,0,48773,50000,368,50000,51,61,3,51,0.00,0.40,0.15,0.08
2016-05-30 08:40:00,0,48354,10,0.01,0,0,0,0,38664,50000,3414,49900,0,51,20,0,0.00,0.05,0.02,0.00
2016-05-30 08:50:00,0,49664,0,0.00,0,0,0,0,46640,50000,1008,50000,0,0,0,0,0.00,0.00,0.00,0.00
2016-05-30 09:00:00,0,48638,0,0.00,0,0,0,0,40467,50000,2807,49968,0,0,0,0,0.00,0.00,0.00,0.00
2016-05-30 09:10:00,0,49452,0,0.00,0,0,0,0,45243,50000,1419,50000,0,0,0,0,0.00,0.00,0.00,0.00
2016-05-30 09:20:00,0,48321,0,0.00,0,0,0,0,42780,50000,2410,50000,0,0,0,0,0.00,0.00,0.00,0.00
2016-05-30 09:30:00,0,48043,0,0.00,0,0,0,0,43060,50000,2049,48452,0,0,0,0,0.00,0.00,0.00,0.00
2016-05-30 09:40:00,0,48495,0,0.00,0,0,0,0,42264,50000,2768,50000,0,0,0,0,0.00,0.00,0.00,0.00
2016-05-30 09:50:00,0,49714,0,0.00,0,0,0,0,48889,50000,441,50000,0,0,0,0,0.00,0.00,0.00,0.00
2016-05-30 10:00:00,0,50000,0,0.00,0,0,0,0,50000,50000,0,50000,0,0,0,0,0.00,0.00,0.00,0.00
2016-05-30 10:10:00,0,49863,0,0.00,0,0,0,0,48631,50000,411,50000,0,0,0,0,0.00,0.00,0.00,0.00
2016-05-30 10:20:00,0,49668,0,0.00,0,0,0,0,46684,50000,995,50000,0,0,0,0,0.00,0.00,0.00,0.00
2016-05-30 10:30:00,0,49542,0,0.00,0,0,0,0,46312,50000,1109,50000,0,0,0,0,0.00,0.00,0.00,0.00
2016-05-30 10:40:00,0,49882,0,0.00,0,0,0,0,48853,50000,343,50000,0,0,0,0,0.00,0.00,0.00,0.00
2016-05-30 10:50:00,0,49712,0,0.00,0,0,0,0,48505,50000,550,50000,0,0,0,0,0.00,0.00,0.00,0.00
2016-05-30 11:00:00,0,49941,0,0.00,0,0,0,0,49407,50000,178,50000,0,0,0,0,0.00,0.00,0.00,0.00
2016-05-30 11:10:00,0,50000,0,0.00,0,0,0,0,50000,50000,0,50000,0,0,0,0,0.00,0.00,0.00,0.00
2016-05-30 11:20:00,0,49676,0,0.00,0,0,0,0,48657,50000,516,50000,0,0,0,0,0.00,0.00,0.00,0.00
2016-05-30 11:30:00,0,50000,0,0.00,0,0,0,0,50000,50000,0,50000,0,0,0,0,0.00,0.00,0.00,0.00
2016-05-30 11:40:00,0,49966,0,0.00,0,0,0,0,49658,50000,103,50000,0,0,0,0,0.00,0.00,0.00,0.00
2016-05-30 11:50:00,0,49938,0,0.00,0,0,0,0,49525,50000,145,50000,0,0,0,0,0.00,0.00,0.00,0.00
2016-05-30 12:00:00,0,49799,0,0.00,0,0,0,0,47986,50000,604,50000,0,0,0,0,0.00,0.00,0.00,0.00
2016-05-30 12:10:00,0,50000,0,0.00,0,0,0,0,50000,50000,0,50000,0,0,0,0,0.00,0.00,0.00,0.00
2016-05-30 12:20:00,0,48561,0,0.00,0,0,0,0,43144,50000,2281,50000,0,0,0,0,0.00,0.00,0.00,0.00
2016-05-30 12:30:00,0,48173,0,0.00,0,0,0,0,41583,50000,2732,50000,0,0,0,0,0.00,0.00,0.00,0.00
2016-05-30 12:40:00,0,47991,0,0.00,0,0,0,0,39982,50000,3223,50000,0,0,0,0,0.00,0.00,0.00,0.00
2016-05-30 12:50:00,0,49732,0,0.00,0,0,0,0,48046,50000,602,50000,0,0,0,0,0.00,0.00,0.00,0.00
2016-05-30 13:00:00,0,49584,0,0.00,0,0,0,0,47090,50000,868,50000,0,0,0,0,0.00,0.00,0.00,0.00
2016-05-30 13:10:00,0,49440,0,0.00,0,0,0,0,45364,50000,1389,50000,0,0,0,0,0.00,0.00,0.00,0.00
2016-05-30 13:20:00,0,49903,0,0.00,0,0,0,0,49031,50000,291,50000,0,0,0,0,0.00,0.00,0.00,0.00
2016-05-30 13:30:00,0,49975,0,0.00,0,0,0,0,49748,50000,76,50000,0,0,0,0,0.00,0.00,0.00,0.00
2016-05-30 13:40:00,0,49775,0,0.00,0,0,0,0,47751,50000,675,50000,0,0,0,0,0.00,0.00,0.00,0.00
2016-05-30 13:50:00,0,49896,0,0.00,0,0,0,0,49391,50000,211,50000,0,0,0,0,0.00,0.00,0.00,0.00
2016-05-30 14:00:00,0,50000,0,0.00,0,0,0,0,50000,50000,0,50000,0,0,0,0,0.00,0.00,0.00,0.00
2016-05-30 14:10:00,0,49444,29,0.06,0,0,0,0,47508,50000,884,50000,0,41,19,41,0.00,0.25,0.08,0.03
2016-05-30 14:20:00,0,50000,4,0.00,0,0,0,0,50000,50000,0,50000,0,41,12,0,0.00,0.00,0.00,0.00
2016-05-30 14:30:00,0,49811,0,0.00,0,0,0,0,48851,50000,389,50000,0,0,0,0,0.00,0.00,0.00,0.00
2016-05-30 14:40:00,0,50000,0,0.00,0,0,0,0,50000,50000,0,50000,0,0,0,0,0.00,0.00,0.00,0.00
2016-05-30 14:50:00,0,49810,0,0.00,0,0,0,0,48101,50000,570,50000,0,0,0,0,0.00,0.00,0.00,0.00
2016-05-30 15:00:00,0,50000,0,0.00,0,0,0,0,50000,50000,0,50000,0,0,0,0,0.00,0.00,0.00,0.00
2016-05-30 15:10:00,0,49995,0,0.00,0,0,0,0,49949,50000,15,50000,0,0,0,0,0.00,0.00,0.00,0.00
2016-05-30 15:20:00,0,50000,0,0.00,0,0,0,0,50000,50000,0,50000,0,0,0,0,0.00,0.00,0.00,0.00
2016-05-30 15:30:00,0,50000,0,0.00,0,0,0,0,50000,50000,0,50000,0,0,0,0,0.00,0.00,0.00,0.00
2016-05-30 15:40:00,0,50000,0,0.00,0,0,0,0,50000,50000,0,50000,0,0,0,0,0.00,0.00,0.00,0.00
2016-05-30 15:50:00,0,50000,0,0.00,0,0,0,0,50000,50000,0,50000,0,0,0,0,0.00,0.00,0.00,0.00
2016-05-30 16:00:00,0,50000,0,0.00,0,0,0,0,50000,50000,0,50000,0,0,0,0,0.00,0.00,0.00,0.00
2016-05-30 16:10:00,0,49986,0,0.00,0,0,0,0,49861,50000,42,50000,0,0,0,0,0.00,0.00,0.00,0.00
2016-05-30 16:20:00,0,49983,0,0.00,0,0,0,0,49829,50000,51,50000,0,0,0,0,0.00,0.00,0.00,0.00
2016-05-30 16:30:00,0,50000,0,0.00,0,0,0,0,50000,50000,0,50000,0,0,0,0,0.00,0.00,0.00,0.00
2016-05-30 16:40:00,0,50000,0,0.00,0,0,0,0,50000,50000,0,50000,0,0,0,0,0.00,0.00,0.00,0.00
2016-05-30 16:50:00,0,49920,0,0.00,0,0,0,0,49661,50000,126,50000,0,0,0,0,0.00,0.00,0.00,0.00
2016-05-30 17:00:00,0,50000,0,0.00,0,0,0,0,50000,50000,0,50000,0,0,0,0,0.00,0.00,0.00,0.00
2016-05-30 17:10:00,0,49929,0,0.00,0,0,0,0,49291,50000,213,50000,0,0,0,0,0.00,0.00,0.00,0.00
2016-05-30 17:20:00,0,49961,0,0.00,0,0,0,0,49607,50000,118,50000,0,0,0,0,0.00,0.00,0.00,0.00
2016-05-30 17:30:00,0,50000,0,0.00,0,0,0,0,50000,50000,0,50000,0,0,0,0,0.00,0.00,0.00,0.00
2016-05-30 17:40:00,0,49833,0,0.00,0,0,0,0,48935,50000,350,50000,0,0,0,0,0.00,0.00,0.00,0.00
2016-05-30 17:50:00,0,50000,0,0.00,0,0,0,0,50000,50000,0,50000,0,0,0,0,0.00,0.00,0.00,0.00
2016-05-30 18:00:00,0,49703,0,0.00,0,0,0,0,47794,50000,676,50000,0,0,0,0,0.00,0.00,0.00,0.00
2016-05-30 18:10:00,0,50000,0,0.00,0,0,0,0,50000,50000,0,50000,0,0,0,0,0.00,0.00,0.00,0.00
2016-05-30 18:20:00,0,50000,0,0.00,0,0,0,0,50000,50000,0,50000,0,0,0,0,0.00,0.00,0.00,0.00
2016-05-30 18:30:00,0,50000,0,0.00,0,0,0,0,50000,50000,0,50000,0,0,0,0,0.00,0.00,0.00,0.00
2016-05-30 18:40:00,0,49651,0,0.00,0,0,0,0,47978,50000,708,50000,0,0,0,0,0.00,0.00,0.00,0.00
2016-05-30 18:50:00,0,49924,0,0.00,0,0,0,0,49239,50000,228,50000,0,0,0,0,0.00,0.00,0.00,0.00
2016-05-30 19:00:00,0,49890,0,0.00,0,0,0,0,48900,50000,330,50000,0,0,0,0,0.00,0.00,0.00,0.00
2016-05-30 19:10:00,0,48381,0,0.00,0,0,0,0,44816,50000,1663,48972,0,0,0,0,0.00,0.00,0.00,0.00
2016-05-30 19:20:00,0,49935,0,0.00,0,0,0,0,49395,50000,181,50000,0,0,0,0,0.00,0.00,0.00,0.00
2016-05-30 19:30:00,0,49302,0,0.00,0,0,0,0,46631,50000,1149,50000,0,0,0,0,0.00,0.00,0.00,0.00
2016-05-30 19:40:00,0,49890,0,0.00,0,0,0,0,49138,50000,261,50000,0,0,0,0,0.00,0.00,0.00,0.00
2016-05-30 19:50:00,0,48964,0,0.00,0,0,0,0,43799,50000,2122,50000,0,0,0,0,0.00,0.00,0.00,0.00
2016-05-30 20:00:00,0,49980,0,0.00,0,0,0,0,49797,50000,61,50000,0,0,0,0,0.00,0.00,0.00,0.00
2016-05-30 20:10:00,0,47032,0,0.00,0,0,0,0,39344,50000,4064,49586,0,0,0,0,0.00,0.00,0.00,0.00
2016-05-30 20:20:00,0,43703,0,0.00,0,0,0,0,37385,50000,4666,42394,0,0,0,0,0.00,0.00,0.00,0.00
2016-05-30 20:30:00,0,45113,0,0.00,0,0,0,0,35017,50000,4872,45638,0,0,0,0,0.00,0.00,0.00,0.00
2016-05-30 20:40:00,0,49607,0,0.00,0,0,0,0,46146,50000,1154,50000,0,0,0,0,0.00,0.00,0.00,0.00
2016-05-30 20:50:00,0,49544,0,0.00,0,0,0,0,45529,50000,1339,50000,0,0,0,0,0.00,0.00,0.00,0.00
2016-05-30 21:00:00,0,48120,0,0.00,0,0,0,0,41549,50000,2681,50000,0,0,0,0,0.00,0.00,0.00,0.00
2016-05-30 21:10:00,0,48348,0,0.00,0,0,0,0,42270,50000,2373,49471,0,0,0,0,0.00,0.00,0.00,0.00
2016-05-30 21:20:00,0,50000,0,0.00,0,0,0,0,50000,50000,0,50000,0,0,0,0,0.00,0.00,0.00,0.00
2016-05-30 21:30:00,0,46508,0,0.00,0,0,0,0,40823,50000,3014,46944,0,0,0,0,0.00,0.00,0.00,0.00
2016-05-30 21:40:00,0,49413,0,0.00,0,0,0,0,47253,50000,821,49704,0,0,0,0,0.00,0.00,0.00,0.00
2016-05-30 21:50:00,0,48735,0,0.00,0,0,0,0,42442,50000,2590,50000,0,0,0,0,0.00,0.00,0.00,0.00
2016-05-30 22:00:00,0,45534,0,0.00,0,0,0,0,37985,50000,3639,46265,0,0,0,0,0.00,0.00,0.00,0.00
2016-05-30 22:10:00,0,46860,0,0.00,0,0,0,0,33058,50000,4758,47616,0,0,0,0,0.00,0.00,0.00,0.00
2016-05-30 22:20:00,0,43850,0,0.00,0,0,0,0,35354,50000,5866,44774,0,0,0,0,0.00,0.00,0.00,0.00
2016-05-30 22:30:00,0,40290,0,0.00,0,0,0,0,26895,50000,8081,41408,0,0,0,0,0.00,0.00,0.00,0.00
2016-05-30 22:40:00,0,38362,0,0.00,0,0,0,0,21686,50000,8488,40680,0,0,0,0,0.00,0.00,0.00,0.00
2016-05-30 22:50:00,0,38389,0,0.00,0,0,0,0,26700,45748,5503,39456,0,0,0,0,0.00,0.00,0.00,0.00
2016-05-30 23:00:00,0,39801,0,0.00,0,0,0,0,30753,50000,6563,40176,0,0,0,0,0.00,0.00,0.00,0.00
2016-05-30 23:10:00,0,40274,0,0.00,0,0,0,0,37199,46098,2357,40208,0,0,0,0,0.00,0.00,0.00,0.00
2016-05-30 23:20:00,0,45626,0,0.00,0,0,0,0,34721,50000,4446,45314,0,0,0,0,0.00,0.00,0.00,0.00
2016-05-30 23:30:00,0,46043,0,0.00,0,0,0,0,37872,50000,3950,47871,0,0,0,0,0.00,0.00,0.00,0.00
2016-05-30 23:40:00,0,46132,0,0.00,0,0,0,0,39898,50000,3246,46524,0,0,0,0,0.00,0.00,0.00,0.00
2016-05-30 23:50:00,0,46856,0,0.00,0,0,0,0,40059,50000,2973,47188,0,0,0,0,0.00,0.00,0.00,0.00
